Location: Beang
(6.6177°N, 10.9863°W)
Time: 04:26:20
(UTC+00:00)

MOS 1-B - Visible Passes

Search period start: 04 August 2021 00:00
Search period end: 14 August 2021 00:00
Orbit: 905 x 913 km, 99.4° (Epoch: 03 August)

Date Brightness Start Highest point End Pass type
(mag) Time Alt. Az. Time Alt. Az. Time Alt. Az.
04 Aug 6.6 06:12:09 10° NE 06:16:52 26° ESE 06:21:37 10° SSE visible
05 Aug 6.4 06:17:12 10° NE 06:22:11 30° ESE 06:27:09 10° SSE visible
05 Aug 5.3 19:13:44 10° S 19:19:19 52° WSW 19:24:54 10° NNW visible
06 Aug 5.6 19:19:08 10° S 19:24:37 46° WSW 19:30:06 10° NNW visible
07 Aug 5.8 19:24:34 10° S 19:29:55 40° WSW 19:35:17 10° NW visible
08 Aug 6.0 19:30:02 10° SSW 19:35:13 35° WSW 19:40:25 10° NW visible
09 Aug 6.3 19:35:32 10° SSW 19:40:32 31° WSW 19:45:32 10° NW visible
10 Aug 6.5 19:41:04 10° SSW 19:45:50 27° WSW 19:50:37 10° NW visible
11 Aug 6.7 19:46:38 10° SSW 19:51:08 24° WSW 19:55:39 10° NW visible
12 Aug 6.9 19:52:15 10° SSW 19:56:27 21° WSW 20:00:39 10° NW visible
13 Aug 7.0 19:57:56 10° SW 20:01:45 18° WSW 20:05:35 10° WNW visible
